Regional Weather Roundup
Issued by NWS

Home | Current Version | Previous Version | Text Only | Print | Product List | Glossary Off
Versions: 1 2 3 4 5 6 7 8 9 10 11 12 13 14 15 16 17 18 19 20 21 22 23 24 25 26 27 28 29 30 31 32 33 34 35 36 37 38 39 40 41 42 43 44 45 46 47 48 49 50

000
ASUS43 KFSD 191310
RWRSD

WEATHER ROUNDUP FOR SOUTH DAKOTA
NATIONAL WEATHER SERVICE SIOUX FALLS SD
800 AM CDT SAT MAY 19 2018

NOTE: "FAIR" INDICATES FEW OR NO CLOUDS BELOW 12,000 FEET WITH NO
SIGNIFICANT WEATHER AND/OR OBSTRUCTIONS TO VISIBILITY.


SDZ001>005-009-010-012>017-191400-
NORTHWEST AND NORTH CENTRAL SOUTH DAKOTA

CITY           SKY/WX    TMP DP  RH WIND       PRES   REMARKS
BUFFALO          N/A     45  36  70 NE14      30.19S
FAITH            N/A     44  38  79 NE21G30   30.19R
MOBRIDGE       CLOUDY    48  38  68 N20G26    30.16R
$$

SDZ012>016-024>037-041>051-057-063-072>074-191400-
SOUTHWEST AND SOUTH CENTRAL SOUTH DAKOTA

CITY           SKY/WX    TMP DP  RH WIND       PRES   REMARKS
RAPID CTY ARPT LGT RAIN  42  41  96 N18       30.19R FOG
PIERRE         CLOUDY    47  44  90 N15       30.12R
CUSTER         CLOUDY    40  35  83 N10       30.14R
ELLSWORTH AFB  LGT RAIN  42  42 100 N15       30.19R
PHILIP         CLOUDY    45  43  93 NE14      30.16R
PINE RIDGE     CLOUDY    45  44  97 N12G21    30.12S
SPEARFISH      FOG       39  39 100 NE10      30.25R VSB 1
WINNER         LGT RAIN  47  43  86 N14       30.09R
$$

SDZ004>011-016>023-039-040-191400-
NORTHEAST SOUTH DAKOTA

CITY           SKY/WX    TMP DP  RH WIND       PRES   REMARKS
ABERDEEN       CLOUDY    46  40  79 N18G28    30.12R
WATERTOWN      CLOUDY    44  43  96 N17G26    30.04R
BROOKINGS      CLOUDY    45  42  89 N20G25    30.02S
SISSETON         N/A     45  43  93 N25G31    30.06R
$$

SDZ017-020-022-023-036>040-048>070-191400-
SOUTHEAST SOUTH DAKOTA

CITY           SKY/WX    TMP DP  RH WIND       PRES   REMARKS
SIOUX FALLS    CLOUDY    49  46  90 N12       30.02R
HURON          CLOUDY    47  42  83 N18G28    30.07S
CHAMBERLAIN    CLOUDY    47  47 100 N13G18    30.08S
MITCHELL       CLOUDY    48  44  86 N20G26    30.06R
YANKTON        CLOUDY    51  46  83 N14       29.99S
$$

ABBREVIATIONS USED IN REMARKS
   TC - TEMPERATURE IN CELSIUS
  WCI - WIND CHILL INDEX
   HX - HEAT INDEX
  VSB - VISIBILITY





USA.gov is the U.S. government's official web portal to all federal, state and local government web resources and services.